Weather Roundup
Issued by NWS Chicago, IL

Home | Current Version | Previous Version | Text Only | Print | Product List | Glossary Off
Versions: 1 2 3 4 5 6 7 8 9 10 11 12 13 14 15 16 17 18 19 20 21 22 23 24 25 26 27 28 29 30 31 32 33 34 35 36 37 38 39 40 41 42 43 44 45 46 47 48 49 50

818
NZUS59 KLOT 291403
HRRLOT

CHICAGO AREA WEATHER ROUNDUP
NATIONAL WEATHER SERVICE CHICAGO/ROMEOVILLE IL
900 AM CDT SUN MAY 29 2016

NOTE: "FAIR" INDICATES FEW OR NO CLOUDS BELOW 12,000 FEET WITH NO
SIGNIFICANT WEATHER AND/OR OBSTRUCTIONS TO VISIBILITY.

* THESE STATIONS ARE NOT UNDER NWS QUALITY CONTROL. THEY ALSO MAY NOT
  REPORT WEATHER SUCH AS PRECIPITATION OR FOG.

ILZ005-006-012>014-019>023-291500-
NORTHEAST ILLINOIS

CITY           SKY/WX    TMP DP  RH WIND       PRES   REMARKS
OHARE          MOSUNNY   72  61  68 SW16G24   29.99R
MIDWAY         MOSUNNY   75  60  59 SW13G23   30.00R
AURORA         SUNNY     73  63  70 SW13      30.01R
LANSING*       SUNNY     75  62  64 SW14      30.02R
WAUKEGAN       SUNNY     72  62  71 SW15G22   29.97R
DUPAGE AIRPORT SUNNY     72  61  68 SW16      30.00R
WHEELING       SUNNY     72  60  66 SW13G22   29.99R
MORRIS*        SUNNY     73  63  68 SW15      30.01S
$$

WIZ051-052-058>065-066-070>072-291500-
SOUTHEAST WISCONSIN

CITY           SKY/WX    TMP DP  RH WIND       PRES   REMARKS
MILWAUKEE      MOSUNNY   71  61  70 SW16      29.95R
KENOSHA*       SUNNY     72  62  71 SW15      29.96S
RACINE*        SUNNY     72  61  68 SW12G23   29.96S
BURLINGTON     MOSUNNY   69  61  75 SW15      29.96R
WAUKESHA       MOSUNNY   68  61  77 SW8       29.95S
$$

INZ001>003-010>013-019-020-291500-
NORTHWEST INDIANA

CITY           SKY/WX    TMP DP  RH WIND       PRES   REMARKS
GARY*          MOSUNNY   75  68  78 SW14      30.02R
MICHIGAN CITY* NOT AVBL
RENSSELAER*    NOT AVBL
VALPARAISO     SUNNY     74  63  68 SW15      30.04R
$$

LMZ740>746-291500-
SOUTHERN LAKE MICHIGAN

STATION/POSITION TIME  SKY/WX   TEMP WIND        PRES    VSBY
                                AIR  DIR/SP/G
                 (UTC)          (F)  (DEG/KT/KT) (MB)    (MI)
HARRISON CRIB    1300            70  200/ 12/ 13   N/A
BURNHAM HARBOR   1400            75  190/ 10/ 16   N/A
CALUMET HARBOR   1300            71  200/ 10/ 12 1015.1F
BURNS HARBOR     1300            71  210/ 10/ 15 1016.6S
MICHIGAN CITY    1300            70  190/ 13/ 15   N/A
$$

ABBREVIATIONS USED IN REMARKS
   TC - TEMPERATURE IN CELSIUS
  WCI - WIND CHILL INDEX
   HX - HEAT INDEX
  VSB - VISIBILITY
$$




USA.gov is the U.S. government's official web portal to all federal, state and local government web resources and services.